Location: Poughquag
(41.6090°N, 73.6820°W)
Time: 02:06:03
(UTC-04:00)

Vanguard 1 Rocket - Pass Details

Date: 06 June 2020
Orbit: 653 x 4224 km, 34.3° (Epoch: 06 July)

Event Time Altitude Azimuth Distance (km) Brightness Sun altitude
Rises 00:28:41 0° 246° (WSW) 8,446 12.2 -25.4°
Reaches altitude 10° 00:34:55 10° 244° (WSW) 7,274 11.8 -25.5°
Maximum altitude 00:57:47 63° 171° (S) 3,156 9.7 -25.7°
Drops below altitude 10° 01:10:19 10° 94° (E) 4,296 10.8 -25.6°
Sets 01:12:58 0° 91° (E) 4,947 11.2 -25.5°
